EST,Max TemperatureF,Mean TemperatureF,Min TemperatureF,Max Dew PointF,MeanDew PointF,Min DewpointF,Max Humidity, Mean Humidity, Min Humidity, Max Sea Level PressureIn, Mean Sea Level PressureIn, Min Sea Level PressureIn, Max VisibilityMiles, Mean VisibilityMiles, Min VisibilityMiles, Max Wind SpeedMPH, Mean Wind SpeedMPH, Max Gust SpeedMPH,PrecipitationIn, CloudCover, Events, WindDirDegrees
2013-1-1,19,12,6,3,2,-2,73,63,49,30.17,30.09,30.02,10,10,10,14,9,20,0.00,4,,274
2013-1-2,21,16,12,16,11,1,80,72,62,30.10,30.05,30.01,10,10,6,10,8,,0.00,8,,250
2013-1-3,28,21,14,19,14,9,86,73,59,30.05,30.00,29.91,10,10,8,17,7,23,0.00,6,,264
2013-1-4,35,26,17,19,14,9,80,62,48,30.12,29.92,29.83,10,10,10,18,11,24,0.00,1,,267
2013-1-5,33,20,6,28,15,0,92,79,67,30.16,30.02,29.82,10,9,5,14,4,22,0.00,1,,242
2013-1-6,30,18,6,27,15,1,92,74,54,30.22,30.01,29.79,10,9,3,16,7,28,0.00,4,,315
2013-1-7,35,20,6,25,17,1,100,65,51,30.21,29.97,29.83,10,10,4,24,10,36,0.00,0,,216
2013-1-8,37,28,19,34,25,14,93,78,65,30.10,30.00,29.84,10,7,2,16,7,23,0.00,1,,188
2013-1-9,37,32,26,30,24,18,81,66,48,30.42,29.98,29.75,10,10,5,28,12,38,0.00,4,,257
2013-1-10,37,26,15,32,23,10,100,78,65,30.49,30.34,30.02,10,10,5,14,5,17,0.00,1,,159
2013-1-11,41,36,33,37,34,30,100,92,81,30.01,29.72,29.58,10,2,0,13,8,21,0.08,8,,163
2013-1-12,42,35,28,39,30,16,93,76,57,29.93,29.68,29.51,10,7,1,21,11,29,0.00,5,,222
2013-1-13,26,22,17,16,14,10,80,68,59,30.02,29.93,29.87,10,10,3,16,9,20,0.00,7,,308
2013-1-14,24,16,8,10,4,-9,73,61,38,30.35,30.25,30.04,10,10,5,17,11,23,0.00,0,,256
2013-1-15,28,16,3,16,7,0,85,63,43,30.37,30.22,29.98,10,10,9,18,10,25,0.00,1,,237
2013-1-16,30,26,19,21,13,7,74,62,46,30.03,29.77,29.61,10,9,1,20,13,29,0.00,5,,251
2013-1-17,19,10,1,9,-2,-8,85,57,38,30.34,30.23,30.04,10,10,10,18,9,26,0.00,3,,308
2013-1-18,19,10,1,18,6,-26,93,77,27,30.35,30.04,29.75,10,8,0,10,5,17,0.42,6,,291
2013-1-19,35,26,15,28,19,1,93,80,49,29.82,29.64,29.44,10,8,1,26,5,43,0.12,7,,266
2013-1-20,12,6,-4,1,-5,-9,85,57,41,30.17,30.05,29.64,10,10,9,25,16,34,0.00,2,,299
2013-1-21,3,-4,-9,-8,-17,-27,72,52,35,30.16,30.05,29.99,10,10,10,25,14,32,0.00,1,,290
2013-1-22,1,-6,-14,-17,-22,-27,65,50,32,30.27,30.22,30.15,10,10,10,18,10,29,0.00,0,,281
2013-1-23,10,-2,-13,5,-11,-27,100,58,32,30.33,30.15,30.04,10,10,3,16,6,26,0.01,6,,279
2013-1-24,12,6,0,1,-4,-9,85,62,45,30.65,30.53,30.35,10,10,2,12,7,16,0.00,3,,305
2013-1-25,19,14,10,14,9,-2,92,79,57,30.41,30.09,29.93,10,5,1,8,3,,0.00,7,,251
2013-1-26,26,19,12,14,11,9,85,69,54,30.38,30.27,30.07,10,10,7,14,9,21,0.00,5,,295
2013-1-27,32,26,21,30,21,10,93,76,55,30.37,30.21,29.99,10,7,1,20,9,26,0.03,7,,194
2013-1-28,35,32,30,30,29,28,93,88,81,29.98,29.91,29.82,10,6,1,13,7,18,0.07,8,,119
2013-1-29,39,36,33,36,32,28,93,87,75,29.92,29.62,29.49,10,6,0,16,8,18,0.00,8,,104
2013-1-30,33,24,15,28,20,9,86,78,69,29.55,29.39,29.29,10,4,0,21,12,31,0.00,8,,340
2013-1-31,15,12,8,9,3,0,79,65,49,29.92,29.65,29.37,10,9,4,22,15,30,0.00,8,,297